カタログに戻る

STARLINK-6249

運用中通信VLEO
NORAD 56541·PAYLOAD·🇺🇸 United States

打ち上げ May 14, 2023 から Cape Canaveral Space Force Station

Loading…

次のパス (今後24時間)

TLE

最新Source: CelesTrak SupGP

元期: Sep 15, 2026, 02:47 UTC

1 56541C 23065AQ  26258.11645833 -.00022020  00000+0 -79762-3 0  2580
2 56541  43.0001 234.0638 0001454 262.8463 308.2722 15.27586897    15

AllMySatでSTARLINK-6249をリアルタイム追跡

Download on the App Store